Location: Newark
(43.4306°N, 0.3089°E)
Time: 22:50:30
(UTC+00:00)

Transit 4A - All Passes

Search period start: 24 August 2019 00:00
Search period end: 03 September 2019 00:00
Orbit: 863 x 981 km, 66.8° (Epoch: 24 August)

Date Brightness Start Highest point End Pass type
(mag) Time Alt. Az. Time Alt. Az. Time Alt. Az.
24 Aug - 01:17:35 10° NNW 01:22:54 28° NE 01:28:05 10° ESE visible
24 Aug - 03:03:38 10° NW 03:09:43 62° WSW 03:15:36 10° SSE visible
24 Aug - 16:25:55 10° SSE 16:31:08 27° ESE 16:36:22 10° NE daylight
24 Aug - 18:10:48 10° SW 18:17:07 59° NW 18:23:27 10° NNE daylight
24 Aug - 20:01:03 10° WNW 20:04:54 16° NNW 20:08:44 10° N visible
24 Aug - 23:42:05 10° N 23:44:12 12° NNE 23:46:17 10° NE visible
25 Aug - 01:26:45 10° NNW 01:32:32 38° NE 01:38:07 10° ESE visible
25 Aug - 03:13:12 10° NW 03:18:56 42° WSW 03:24:30 10° S visible
25 Aug - 16:34:24 10° S 16:40:16 39° ESE 16:46:09 10° NE daylight
25 Aug - 18:20:33 10° WSW 18:26:37 43° NW 18:32:41 10° NNE daylight
25 Aug - 20:12:01 10° NW 20:14:48 13° NNW 20:17:35 10° N visible
25 Aug - 23:50:48 10° N 23:54:08 15° NNE 23:57:25 10° ENE visible
26 Aug - 01:35:58 10° NNW 01:42:03 53° NE 01:47:55 10° SE visible
26 Aug - 03:22:57 10° NW 03:28:04 28° WSW 03:33:02 10° SSW visible
26 Aug - 16:43:14 10° SSW 16:49:29 57° ESE 16:55:44 10° NE daylight
26 Aug - 18:30:33 10° WSW 18:36:13 32° NW 18:41:52 10° NNE daylight
26 Aug - 20:23:43 10° NNW 20:24:48 10° NNW 20:25:52 10° N visible
26 Aug - 23:59:44 10° N 00:03:59 18° NE 00:08:08 10° ENE visible
27 Aug - 01:45:16 10° NNW 01:51:29 75° ENE 01:57:28 10° SE visible
27 Aug - 03:33:02 10° WNW 03:37:07 19° WSW 03:41:06 10° SW visible
27 Aug - 15:10:21 10° SE 15:13:22 14° E 15:16:24 10° ENE daylight
27 Aug - 16:52:21 10° SSW 16:58:46 81° ESE 17:05:11 10° NNE daylight
27 Aug - 18:40:46 10° W 18:45:53 24° NW 18:50:59 10° NNE daylight
28 Aug - 00:08:48 10° NNW 00:13:45 24° NE 00:18:34 10° E visible
28 Aug - 01:54:38 10° NNW 02:00:50 78° WSW 02:06:47 10° SSE visible
28 Aug - 03:44:03 10° W 03:46:05 12° W 03:48:06 10° WSW visible
28 Aug - 15:17:47 10° SSE 15:22:23 21° ESE 15:26:59 10° ENE daylight
28 Aug - 17:01:44 10° SW 17:08:08 73° WNW 17:14:32 10° NNE daylight
28 Aug - 18:51:15 10° W 18:55:39 19° NW 19:00:01 10° N daylight
28 Aug - 22:34:10 10° NNE 22:34:50 10° NNE 22:35:29 10° NNE visible
29 Aug - 00:17:55 10° NNW 00:23:25 31° NE 00:28:45 10° ESE visible
29 Aug - 02:04:07 10° NW 02:10:05 53° WSW 02:15:51 10° S visible
29 Aug - 15:25:59 10° SSE 15:31:28 31° ESE 15:36:58 10° NE daylight
29 Aug - 17:11:21 10° SW 17:17:35 52° NW 17:23:49 10° NNE daylight
29 Aug - 19:02:01 10° WNW 19:05:30 15° NNW 19:08:58 10° N visible
29 Aug - 22:42:15 10° N 22:44:49 13° NNE 22:47:22 10° NE visible
30 Aug - 00:27:07 10° NNW 00:33:00 43° NE 00:38:42 10° ESE visible
30 Aug - 02:13:44 10° NW 02:19:16 36° WSW 02:24:37 10° S visible
30 Aug - 15:34:36 10° S 15:40:38 45° ESE 15:46:40 10° NE daylight
30 Aug - 17:21:11 10° WSW 17:27:07 38° NW 17:33:02 10° NNE daylight
30 Aug - 19:13:10 10° NW 19:15:26 12° NNW 19:17:42 10° N visible
30 Aug - 22:51:04 10° N 22:54:44 16° NNE 22:58:19 10° ENE visible
31 Aug - 00:36:22 10° NNW 00:42:30 60° NE 00:48:24 10° SE visible
31 Aug - 02:23:35 10° NW 02:28:22 24° WSW 02:33:01 10° SSW visible
31 Aug - 15:43:32 10° SSW 15:49:52 65° ESE 15:56:12 10° NE daylight
31 Aug - 17:31:15 10° WSW 17:36:44 29° NW 17:42:11 10° NNE daylight
31 Aug - 23:00:04 10° N 23:04:33 20° NE 23:08:56 10° E visible
01 Sep - 00:45:41 10° NNW 00:51:54 84° ENE 00:57:52 10° SSE visible
01 Sep - 02:33:53 10° WNW 02:37:22 16° WSW 02:40:49 10° SW visible
01 Sep - 14:09:56 10° SE 14:13:39 16° ESE 14:17:22 10° ENE daylight
01 Sep - 15:52:45 10° SSW 15:59:11 89° NW 16:05:36 10° NNE daylight
01 Sep - 17:41:34 10° W 17:46:26 22° NW 17:51:17 10° N daylight
01 Sep - 23:09:08 10° NNW 23:14:17 26° NE 23:19:16 10° E visible
02 Sep - 00:55:05 10° NW 01:01:12 68° WSW 01:07:06 10° SSE visible
02 Sep - 14:17:43 10° SSE 14:22:41 24° ESE 14:27:40 10° NE daylight
02 Sep - 16:02:13 10° SW 16:08:35 65° NW 16:14:56 10° NNE daylight
02 Sep - 17:52:09 10° WNW 17:56:14 17° NNW 18:00:17 10° N daylight
02 Sep - 21:33:56 10° N 21:35:29 11° NNE 21:37:01 10° NE visible
02 Sep - 23:18:17 10° NNW 23:23:55 35° NE 23:29:23 10° ESE visible
